QPF
0.06 0.07 0.09 0.11 0.13 0.13 0.18 0.23 0.21 0.20 0.22 0.25 0.24 0.22 0.20 0.15 0.11 0.10 0.08 0.05 0.04 0.03 0.02 0.02 0.02 0.01 0.01 0.00 0.00 0.00 0.00 0.00 0.00 0.00 0.00 0.00 0.00 0.00 0.00 0.00 0.00 0.00 0.00
0.06 0.07 0.08 0.08 0.10 0.12 0.16 0.18 0.18 0.19 0.18 0.19 0.20 0.21 0.23 0.24 0.21 0.18 0.13 0.08 0.05 0.03 0.03 0.03 0.02 0.01 0.00 0.00 0.00 0.00 0.01 0.01 0.01 0.01 0.01 0.00 0.00 0.00 0.00 0.00 0.00 0.00 0.00
0.04 0.06 0.06 0.06 0.06 0.08 0.11 0.12 0.15 0.17 0.17 0.17 0.20 0.21 0.22 0.22 0.19 0.16 0.14 0.11 0.09 0.08 0.06 0.05 0.03 0.02 0.01 0.01 0.01 0.01 0.01 0.01 0.01 0.01 0.02 0.01 0.00 0.00 0.00 0.00 0.00 0.00 0.00
0.03 0.04 0.05 0.05 0.05 0.06 0.08 0.09 0.11 0.11 0.12 0.13 0.15 0.15 0.14 0.13 0.11 0.11 0.10 0.11 0.12 0.12 0.10 0.08 0.06 0.04 0.03 0.02 0.02 0.02 0.01 0.01 0.01 0.01 0.02 0.02 0.02 0.01 0.01 0.00 0.00 0.00 0.00
0.01 0.02 0.03 0.04 0.04 0.05 0.06 0.08 0.08 0.08 0.08 0.11 0.14 0.18 0.17 0.13 0.12 0.13 0.14 0.13 0.12 0.12 0.11 0.08 0.06 0.05 0.04 0.04 0.03 0.03 0.03 0.03 0.02 0.03 0.03 0.03 0.03 0.03 0.03 0.01 0.00 0.00 0.00
0.01 0.01 0.02 0.03 0.03 0.04 0.04 0.06 0.08 0.08 0.09 0.10 0.12 0.13 0.14 0.14 0.13 0.13 0.14 0.13 0.11 0.10 0.10 0.08 0.07 0.06 0.05 0.05 0.05 0.05 0.06 0.06 0.06 0.06 0.06 0.05 0.05 0.04 0.05 0.04 0.02 0.02 0.02
0.00 0.00 0.01 0.01 0.02 0.03 0.04 0.05 0.06 0.06 0.06 0.07 0.09 0.10 0.12 0.12 0.11 0.09 0.08 0.09 0.08 0.08 0.09 0.08 0.07 0.07 0.07 0.07 0.06 0.06 0.06 0.06 0.06 0.07 0.07 0.06 0.05 0.04 0.05 0.05 0.04 0.03 0.03
0.00 0.00 0.00 0.01 0.01 0.02 0.02 0.03 0.03 0.04 0.04 0.05 0.06 0.08 0.10 0.11 0.10 0.09 0.07 0.05 0.04 0.05 0.07 0.08 0.09 0.08 0.06 0.05 0.06 0.05 0.04 0.04 0.05 0.05 0.06 0.06 0.06 0.06 0.06 0.06 0.06 0.04 0.02
0.00 0.00 0.00 0.01 0.01 0.01 0.01 0.01 0.01 0.02 0.02 0.03 0.04 0.05 0.06 0.06 0.06 0.06 0.06 0.06 0.06 0.05 0.05 0.05 0.06 0.06 0.07 0.07 0.08 0.07 0.06 0.06 0.06 0.06 0.06 0.06 0.05 0.05 0.05 0.05 0.05 0.05 0.04
0.01 0.00 0.00 0.00 0.00 0.01 0.01 0.01 0.01 0.01 0.02 0.02 0.02 0.03 0.04 0.05 0.05 0.06 0.06 0.06 0.06 0.06 0.05 0.04 0.03 0.04 0.05 0.06 0.06 0.06 0.06 0.06 0.05 0.04 0.04 0.03 0.03 0.03 0.04 0.05 0.05 0.05 0.04
0.00 0.01 0.00 0.00 0.00 0.01 0.01 0.01 0.01 0.01 0.01 0.02 0.02 0.02 0.03 0.04 0.05 0.05 0.05 0.05 0.04 0.04 0.04 0.03 0.02 0.02 0.02 0.02 0.03 0.03 0.03 0.03 0.03 0.02 0.02 0.02 0.02 0.02 0.02 0.03 0.03 0.03 0.03
0.00 0.00 0.00 0.00 0.00 0.00 0.01 0.01 0.01 0.01 0.01 0.01 0.01 0.02 0.03 0.04 0.05 0.05 0.04 0.03 0.03 0.03 0.02 0.01 0.01 0.01 0.01 0.01 0.01 0.01 0.01 0.01 0.01 0.01 0.01 0.01 0.02 0.02 0.03 0.03 0.03 0.03 0.03
0.00 0.00 0.00 0.00 0.00 0.00 0.01 0.01 0.01 0.01 0.01 0.01 0.01 0.01 0.01 0.02 0.02 0.02 0.02 0.02 0.02 0.02 0.01 0.01 0.01 0.01 0.00 0.00 0.00 0.01 0.01 0.01 0.01 0.01 0.01 0.01 0.02 0.02 0.02 0.02 0.03 0.03 0.03
0.01 0.01 0.01 0.00 0.00 0.00 0.01 0.01 0.00 0.01 0.01 0.01 0.01 0.01 0.01 0.02 0.02 0.02 0.02 0.02 0.03 0.02 0.01 0.01 0.01 0.01 0.01 0.01 0.00 0.00 0.01 0.01 0.01 0.01 0.01 0.01 0.01 0.01 0.02 0.02 0.02 0.03 0.03
0.01 0.01 0.01 0.01 0.00 0.00 0.00 0.00 0.00 0.00 0.01 0.01 0.01 0.01 0.01 0.02 0.02 0.03 0.03 0.03 0.03 0.03 0.03 0.02 0.02 0.01 0.01 0.01 0.01 0.01 0.01 0.01 0.00 0.00 0.00 0.00 0.00 0.00 0.01 0.01 0.02 0.02 0.03
0.01 0.01 0.01 0.01 0.00 0.00 0.00 0.00 0.00 0.00 0.01 0.01 0.01 0.02 0.02 0.03 0.03 0.03 0.03 0.02 0.02 0.02 0.02 0.01 0.01 0.01 0.01 0.01 0.01 0.01 0.01 0.00 0.00 0.00 0.00 0.00 0.00 0.00 0.01 0.01 0.02 0.02 0.02
0.01 0.01 0.01 0.00 0.00 0.00 0.00 0.00 0.00 0.00 0.00 0.01 0.01 0.02 0.02 0.02 0.02 0.03 0.03 0.02 0.02 0.02 0.01 0.01 0.01 0.01 0.01 0.01 0.01 0.01 0.00 0.00 0.00 0.00 0.00 0.00 0.00 0.00 0.00 0.01 0.01 0.01 0.02
0.01 0.01 0.01 0.01 0.01 0.00 0.00 0.00 0.00 0.00 0.00 0.00 0.01 0.02 0.02 0.01 0.01 0.01 0.02 0.02 0.02 0.02 0.02 0.02 0.01 0.01 0.01 0.01 0.01 0.00 0.00 0.00 0.00 0.00 0.00 0.00 0.00 0.00 0.00 0.00 0.00 0.01 0.01
0.02 0.02 0.02 0.02 0.01 0.00 0.00 0.00 0.00 0.00 0.00 0.00 0.00 0.01 0.01 0.01 0.01 0.01 0.01 0.01 0.01 0.01 0.01 0.01 0.01 0.01 0.01 0.01 0.00 0.00 0.00 0.00 0.00 0.00 0.00 0.00 0.00 0.01 0.01 0.00 0.00 0.00 0.00
0.02 0.02 0.02 0.02 0.02 0.01 0.00 0.00 0.00 0.00 0.00 0.00 0.00 0.00 0.00 0.00 0.00 0.00 0.00 0.00 0.00 0.00 0.00 0.00 0.00 0.00 0.00 0.00 0.00 0.00 0.00 0.00 0.00 0.00 0.00 0.00 0.00 0.01 0.00 0.00 0.00 0.00 0.00
0.02 0.02 0.01 0.01 0.02 0.03 0.02 0.01 0.00 0.00 0.00 0.00 0.01 0.01 0.00 0.00 0.00 0.00 0.00 0.00 0.00 0.00 0.00 0.00 0.00 0.00 0.00 0.00 0.00 0.00 0.00 0.00 0.00 0.00 0.00 0.00 0.01 0.01 0.00 0.00 0.00 0.00 0.00
0.01 0.01 0.01 0.01 0.01 0.02 0.02 0.01 0.01 0.01 0.00 0.00 0.01 0.01 0.00 0.00 0.00 0.00 0.00 0.00 0.00 0.00 0.00 0.00 0.00 0.00 0.00 0.00 0.00 0.00 0.00 0.00 0.00 0.00 0.00 0.00 0.01 0.00 0.00 0.00 0.00 0.00 0.00
0.01 0.01 0.01 0.01 0.01 0.01 0.01 0.01 0.01 0.01 0.00 0.01 0.01 0.01 0.01 0.01 0.01 0.01 0.01 0.00 0.00 0.00 0.00 0.00 0.00 0.00 0.00 0.00 0.00 0.00 0.00 0.00 0.00 0.00 0.00 0.00 0.00 0.00 0.00 0.00 0.00 0.00 0.00
0.01 0.01 0.01 0.00 0.01 0.01 0.01 0.01 0.01 0.01 0.01 0.01 0.02 0.02 0.02 0.02 0.02 0.02 0.01 0.01 0.00 0.00 0.00 0.00 0.00 0.00 0.00 0.00 0.00 0.00 0.00 0.00 0.00 0.00 0.00 0.00 0.00 0.00 0.00 0.00 0.00 0.00 0.00
0.01 0.01 0.01 0.01 0.01 0.01 0.01 0.01 0.01 0.01 0.02 0.02 0.02 0.03 0.03 0.03 0.03 0.02 0.02 0.01 0.01 0.01 0.00 0.00 0.00 0.01 0.00 0.01 0.01 0.01 0.00 0.00 0.01 0.01 0.00 0.00 0.00 0.00 0.00 0.00 0.00 0.00 0.00
0.01 0.01 0.01 0.01 0.02 0.02 0.01 0.01 0.02 0.02 0.02 0.03 0.03 0.03 0.03 0.02 0.02 0.02 0.01 0.01 0.01 0.01 0.01 0.01 0.01 0.00 0.01 0.01 0.01 0.01 0.01 0.01 0.01 0.01 0.01 0.01 0.01 0.01 0.00 0.01 0.00 0.00 0.00
MSLP
1010.50 1010.04 1009.64 1009.36 1009.27 1009.40 1009.76 1010.34 1011.09 1011.94 1012.82 1013.65 1014.40 1015.04 1015.55 1015.95 1016.27 1016.55 1016.81 1017.07 1017.35 1017.64 1017.96 1018.29 1018.64 1018.99 1019.37 1019.75 1020.14 1020.52 1020.87 1021.18 1021.41 1021.55 1021.59 1021.53 1021.38 1021.18 1020.94 1020.72 1020.54 1020.43 1020.39
1010.85 1010.37 1009.91 1009.57 1009.40 1009.45 1009.74 1010.25 1010.94 1011.76 1012.61 1013.45 1014.21 1014.86 1015.39 1015.80 1016.14 1016.42 1016.67 1016.93 1017.20 1017.48 1017.77 1018.07 1018.39 1018.70 1019.03 1019.37 1019.72 1020.07 1020.41 1020.71 1020.95 1021.11 1021.17 1021.14 1021.01 1020.83 1020.61 1020.41 1020.25 1020.15 1020.12
1011.01 1010.53 1010.08 1009.72 1009.52 1009.52 1009.75 1010.20 1010.85 1011.61 1012.44 1013.26 1014.01 1014.67 1015.22 1015.66 1016.01 1016.31 1016.59 1016.86 1017.13 1017.40 1017.68 1017.95 1018.22 1018.49 1018.75 1019.03 1019.32 1019.63 1019.93 1020.21 1020.46 1020.63 1020.72 1020.71 1020.63 1020.48 1020.30 1020.13 1020.00 1019.94 1019.96
1010.91 1010.49 1010.09 1009.77 1009.59 1009.59 1009.80 1010.21 1010.80 1011.52 1012.31 1013.09 1013.83 1014.49 1015.05 1015.51 1015.90 1016.23 1016.54 1016.84 1017.13 1017.41 1017.67 1017.92 1018.15 1018.36 1018.57 1018.78 1019.01 1019.26 1019.52 1019.78 1020.01 1020.19 1020.30 1020.33 1020.27 1020.17 1020.03 1019.90 1019.82 1019.81 1019.86
1010.60 1010.29 1010.00 1009.77 1009.64 1009.68 1009.89 1010.28 1010.83 1011.50 1012.24 1012.98 1013.69 1014.33 1014.89 1015.38 1015.80 1016.17 1016.52 1016.85 1017.17 1017.47 1017.74 1017.97 1018.17 1018.34 1018.49 1018.65 1018.82 1019.02 1019.24 1019.47 1019.69 1019.86 1019.98 1020.02 1020.00 1019.93 1019.83 1019.74 1019.70 1019.72 1019.82
1010.18 1010.01 1009.86 1009.75 1009.73 1009.82 1010.05 1010.43 1010.95 1011.57 1012.25 1012.94 1013.61 1014.23 1014.78 1015.28 1015.72 1016.14 1016.53 1016.90 1017.26 1017.58 1017.87 1018.10 1018.29 1018.43 1018.55 1018.66 1018.79 1018.94 1019.12 1019.32 1019.51 1019.67 1019.79 1019.84 1019.83 1019.77 1019.69 1019.63 1019.61 1019.66 1019.78
1009.79 1009.78 1009.78 1009.81 1009.89 1010.06 1010.33 1010.71 1011.19 1011.75 1012.37 1012.99 1013.61 1014.19 1014.73 1015.23 1015.69 1016.14 1016.57 1016.99 1017.38 1017.74 1018.05 1018.29 1018.48 1018.61 1018.71 1018.80 1018.89 1019.01 1019.16 1019.32 1019.49 1019.63 1019.73 1019.77 1019.76 1019.70 1019.62 1019.56 1019.55 1019.60 1019.73
1009.56 1009.70 1009.86 1010.02 1010.21 1010.45 1010.74 1011.11 1011.56 1012.06 1012.61 1013.17 1013.72 1014.26 1014.77 1015.26 1015.74 1016.21 1016.67 1017.12 1017.55 1017.94 1018.27 1018.54 1018.73 1018.87 1018.97 1019.04 1019.12 1019.21 1019.32 1019.46 1019.59 1019.71 1019.78 1019.80 1019.77 1019.69 1019.60 1019.52 1019.49 1019.53 1019.65
1009.58 1009.86 1010.15 1010.42 1010.69 1010.98 1011.30 1011.65 1012.05 1012.49 1012.97 1013.46 1013.95 1014.44 1014.92 1015.40 1015.88 1016.35 1016.83 1017.31 1017.76 1018.17 1018.53 1018.81 1019.03 1019.17 1019.27 1019.34 1019.40 1019.47 1019.57 1019.67 1019.77 1019.85 1019.89 1019.89 1019.82 1019.72 1019.61 1019.50 1019.44 1019.45 1019.55
1009.90 1010.28 1010.65 1011.01 1011.33 1011.65 1011.97 1012.29 1012.65 1013.03 1013.44 1013.86 1014.30 1014.74 1015.19 1015.65 1016.12 1016.59 1017.08 1017.56 1018.02 1018.45 1018.81 1019.11 1019.33 1019.48 1019.58 1019.65 1019.70 1019.76 1019.83 1019.90 1019.97 1020.03 1020.04 1020.00 1019.91 1019.78 1019.63 1019.50 1019.41 1019.39 1019.45
1010.45 1010.89 1011.32 1011.71 1012.07 1012.39 1012.69 1013.00 1013.31 1013.64 1013.99 1014.37 1014.75 1015.16 1015.58 1016.01 1016.46 1016.93 1017.40 1017.87 1018.33 1018.75 1019.11 1019.40 1019.62 1019.77 1019.87 1019.93 1019.97 1020.02 1020.06 1020.12 1020.16 1020.19 1020.18 1020.12 1020.01 1019.86 1019.69 1019.53 1019.41 1019.36 1019.38
1011.13 1011.59 1012.03 1012.44 1012.80 1013.12 1013.40 1013.68 1013.96 1014.26 1014.57 1014.91 1015.27 1015.65 1016.04 1016.45 1016.89 1017.33 1017.78 1018.23 1018.67 1019.06 1019.41 1019.69 1019.89 1020.03 1020.12 1020.17 1020.20 1020.23 1020.26 1020.29 1020.32 1020.33 1020.30 1020.23 1020.12 1019.96 1019.78 1019.61 1019.47 1019.39 1019.39
1011.78 1012.24 1012.68 1013.08 1013.43 1013.74 1014.02 1014.28 1014.55 1014.83 1015.14 1015.46 1015.81 1016.17 1016.55 1016.95 1017.36 1017.78 1018.20 1018.62 1019.02 1019.38 1019.70 1019.95 1020.13 1020.26 1020.33 1020.37 1020.38 1020.39 1020.41 1020.43 1020.44 1020.44 1020.41 1020.34 1020.23 1020.09 1019.91 1019.74 1019.59 1019.50 1019.47
1012.29 1012.73 1013.16 1013.54 1013.89 1014.19 1014.47 1014.74 1015.02 1015.31 1015.62 1015.96 1016.31 1016.68 1017.05 1017.44 1017.83 1018.22 1018.62 1019.00 1019.36 1019.69 1019.97 1020.18 1020.34 1020.45 1020.50 1020.52 1020.52 1020.52 1020.52 1020.53 1020.54 1020.53 1020.51 1020.46 1020.36 1020.23 1020.08 1019.92 1019.77 1019.67 1019.62
1012.61 1013.02 1013.42 1013.79 1014.13 1014.44 1014.74 1015.03 1015.34 1015.66 1016.00 1016.36 1016.73 1017.11 1017.49 1017.88 1018.26 1018.63 1019.00 1019.35 1019.67 1019.96 1020.20 1020.39 1020.52 1020.60 1020.63 1020.64 1020.63 1020.61 1020.61 1020.61 1020.61 1020.62 1020.61 1020.57 1020.50 1020.40 1020.27 1020.13 1019.99 1019.89 1019.84
1012.73 1013.10 1013.48 1013.84 1014.18 1014.51 1014.83 1015.16 1015.50 1015.86 1016.24 1016.63 1017.04 1017.44 1017.84 1018.22 1018.60 1018.96 1019.30 1019.62 1019.92 1020.17 1020.38 1020.54 1020.65 1020.71 1020.73 1020.72 1020.70 1020.68 1020.66 1020.66 1020.67 1020.68 1020.68 1020.67 1020.62 1020.55 1020.45 1020.34 1020.22 1020.13 1020.07
1012.73 1013.06 1013.41 1013.76 1014.10 1014.44 1014.79 1015.15 1015.53 1015.93 1016.35 1016.78 1017.21 1017.63 1018.05 1018.45 1018.82 1019.18 1019.51 1019.81 1020.08 1020.31 1020.50 1020.64 1020.73 1020.78 1020.78 1020.77 1020.73 1020.70 1020.69 1020.68 1020.69 1020.71 1020.73 1020.73 1020.71 1020.67 1020.60 1020.52 1020.43 1020.35 1020.29
1012.72 1013.01 1013.32 1013.65 1013.98 1014.33 1014.69 1015.08 1015.48 1015.90 1016.35 1016.80 1017.25 1017.69 1018.12 1018.53 1018.91 1019.26 1019.59 1019.88 1020.14 1020.36 1020.54 1020.66 1020.74 1020.77 1020.77 1020.75 1020.71 1020.68 1020.66 1020.65 1020.67 1020.69 1020.72 1020.74 1020.75 1020.74 1020.70 1020.64 1020.58 1020.52 1020.48
1012.82 1013.05 1013.32 1013.62 1013.93 1014.27 1014.62 1015.00 1015.40 1015.83 1016.27 1016.73 1017.18 1017.63 1018.06 1018.48 1018.86 1019.22 1019.55 1019.84 1020.10 1020.31 1020.48 1020.60 1020.67 1020.69 1020.69 1020.66 1020.62 1020.58 1020.56 1020.56 1020.58 1020.61 1020.65 1020.69 1020.72 1020.74 1020.73 1020.70 1020.67 1020.63 1020.61
1013.08 1013.27 1013.49 1013.74 1014.01 1014.31 1014.63 1014.98 1015.36 1015.75 1016.17 1016.61 1017.05 1017.48 1017.91 1018.32 1018.70 1019.07 1019.39 1019.69 1019.94 1020.16 1020.32 1020.44 1020.50 1020.53 1020.52 1020.49 1020.45 1020.41 1020.39 1020.40 1020.42 1020.46 1020.52 1020.58 1020.64 1020.68 1020.70 1020.71 1020.70 1020.69 1020.70
1013.53 1013.67 1013.84 1014.04 1014.26 1014.50 1014.77 1015.06 1015.38 1015.72 1016.09 1016.48 1016.88 1017.29 1017.69 1018.09 1018.47 1018.82 1019.15 1019.44 1019.70 1019.91 1020.07 1020.18 1020.25 1020.27 1020.26 1020.23 1020.20 1020.17 1020.15 1020.17 1020.20 1020.26 1020.34 1020.42 1020.50 1020.57 1020.63 1020.67 1020.69 1020.71 1020.74
1014.10 1014.20 1014.33 1014.48 1014.64 1014.82 1015.02 1015.24 1015.48 1015.75 1016.05 1016.37 1016.72 1017.08 1017.45 1017.81 1018.17 1018.52 1018.84 1019.13 1019.37 1019.58 1019.74 1019.84 1019.91 1019.93 1019.92 1019.90 1019.87 1019.85 1019.85 1019.88 1019.94 1020.02 1020.12 1020.23 1020.34 1020.44 1020.53 1020.59 1020.65 1020.70 1020.75
1014.71 1014.79 1014.89 1015.00 1015.12 1015.23 1015.36 1015.50 1015.66 1015.84 1016.06 1016.30 1016.58 1016.88 1017.20 1017.53 1017.86 1018.18 1018.48 1018.75 1018.99 1019.18 1019.33 1019.43 1019.49 1019.51 1019.50 1019.49 1019.47 1019.47 1019.49 1019.55 1019.63 1019.74 1019.86 1020.00 1020.14 1020.27 1020.38 1020.48 1020.57 1020.64 1020.71
1015.26 1015.35 1015.44 1015.53 1015.60 1015.67 1015.73 1015.80 1015.88 1015.99 1016.12 1016.29 1016.49 1016.72 1016.97 1017.25 1017.54 1017.82 1018.09 1018.34 1018.55 1018.73 1018.86 1018.95 1019.00 1019.02 1019.02 1019.01 1019.01 1019.03 1019.08 1019.15 1019.26 1019.40 1019.56 1019.72 1019.89 1020.05 1020.19 1020.31 1020.41 1020.51 1020.60
1015.66 1015.78 1015.89 1015.98 1016.04 1016.08 1016.10 1016.11 1016.13 1016.16 1016.22 1016.31 1016.43 1016.59 1016.78 1017.00 1017.23 1017.46 1017.69 1017.90 1018.08 1018.22 1018.33 1018.40 1018.44 1018.46 1018.46 1018.46 1018.48 1018.51 1018.58 1018.68 1018.82 1018.98 1019.16 1019.36 1019.54 1019.73 1019.89 1020.03 1020.15 1020.26 1020.36
1015.90 1016.06 1016.21 1016.32 1016.39 1016.42 1016.42 1016.40 1016.37 1016.34 1016.34 1016.36 1016.41 1016.50 1016.63 1016.77 1016.94 1017.12 1017.29 1017.45 1017.58 1017.69 1017.76 1017.81 1017.83 1017.83 1017.83 1017.83 1017.86 1017.91 1017.99 1018.11 1018.26 1018.44 1018.64 1018.85 1019.05 1019.25 1019.42 1019.57 1019.71 1019.83 1019.94
Thickness
5642 5650 5657 5663 5668 5671 5674 5676 5679 5680 5681 5680 5678 5677 5677 5678 5679 5680 5680 5680 5679 5678 5677 5675 5673 5672 5670 5668 5666 5664 5662 5660 5658 5656 5654 5656 5657 5656 5656 5654 5652 5649 5647
5634 5642 5649 5655 5660 5664 5668 5671 5673 5675 5677 5677 5676 5675 5673 5672 5673 5673 5673 5674 5674 5673 5672 5670 5668 5666 5664 5662 5660 5658 5655 5653 5651 5648 5644 5643 5646 5648 5649 5647 5645 5642 5639
5628 5635 5642 5649 5654 5658 5662 5665 5667 5670 5671 5671 5669 5667 5665 5665 5664 5665 5666 5667 5667 5667 5666 5664 5662 5660 5659 5656 5655 5652 5649 5646 5644 5642 5638 5634 5634 5636 5640 5638 5636 5633 5630
5624 5631 5637 5643 5648 5653 5657 5660 5662 5663 5665 5665 5664 5663 5662 5661 5661 5661 5661 5660 5660 5659 5658 5657 5655 5653 5651 5650 5648 5646 5644 5641 5637 5635 5634 5632 5630 5626 5627 5628 5626 5623 5620
5619 5626 5633 5638 5642 5645 5648 5652 5654 5656 5658 5658 5658 5657 5657 5657 5655 5654 5653 5652 5652 5652 5651 5650 5648 5646 5645 5643 5641 5639 5637 5634 5632 5629 5626 5624 5622 5620 5616 5617 5616 5612 5609
5613 5619 5624 5629 5632 5636 5639 5642 5644 5646 5648 5650 5650 5650 5649 5648 5646 5645 5644 5644 5643 5643 5643 5642 5640 5639 5637 5636 5634 5632 5629 5627 5625 5622 5619 5617 5614 5612 5609 5608 5608 5604 5600
5604 5609 5614 5618 5622 5626 5629 5632 5634 5636 5638 5640 5641 5642 5642 5641 5640 5639 5638 5636 5635 5634 5634 5634 5632 5630 5629 5628 5625 5623 5621 5619 5616 5614 5612 5609 5606 5604 5602 5599 5598 5595 5591
5596 5601 5605 5609 5612 5616 5619 5622 5624 5625 5627 5629 5631 5632 5633 5632 5631 5631 5630 5629 5628 5627 5626 5624 5623 5621 5619 5618 5616 5614 5612 5610 5607 5605 5603 5600 5597 5595 5592 5590 5587 5585 5582
5585 5590 5594 5598 5601 5605 5609 5611 5613 5615 5616 5618 5620 5621 5622 5622 5622 5622 5621 5619 5618 5617 5616 5614 5612 5610 5609 5608 5606 5604 5602 5599 5597 5595 5592 5589 5587 5584 5582 5579 5576 5574 5574
5573 5578 5582 5585 5589 5592 5596 5599 5602 5604 5606 5607 5609 5611 5611 5611 5611 5610 5609 5608 5606 5605 5604 5603 5601 5599 5598 5596 5595 5592 5590 5588 5586 5583 5580 5578 5575 5573 5570 5568 5565 5562 5562
5561 5565 5569 5573 5576 5579 5583 5586 5588 5591 5593 5595 5597 5597 5598 5598 5598 5597 5597 5596 5594 5592 5591 5590 5589 5587 5585 5583 5582 5580 5579 5576 5573 5571 5568 5566 5563 5561 5558 5556 5553 5550 5548
5549 5552 5556 5559 5563 5566 5570 5573 5576 5579 5581 5583 5584 5584 5584 5585 5584 5584 5583 5582 5581 5579 5578 5577 5576 5574 5572 5570 5569 5568 5566 5563 5561 5558 5556 5553 5551 5548 5546 5543 5541 5538 5536
5539 5541 5544 5547 5550 5553 5557 5561 5564 5566 5569 5570 5571 5571 5571 5571 5571 5570 5570 5569 5568 5566 5566 5565 5563 5560 5559 5557 5556 5555 5553 5550 5548 5546 5543 5541 5538 5536 5533 5531 5528 5526 5524
5528 5530 5533 5535 5539 5542 5545 5549 5551 5554 5556 5557 5558 5558 5559 5559 5559 5557 5556 5556 5555 5553 5552 5551 5549 5547 5546 5545 5544 5542 5540 5537 5535 5532 5531 5528 5526 5523 5520 5518 5516 5514 5511
5519 5521 5523 5525 5528 5531 5534 5538 5540 5543 5545 5546 5547 5547 5547 5547 5546 5545 5544 5543 5542 5541 5540 5538 5536 5535 5534 5533 5532 5530 5527 5524 5521 5519 5517 5515 5513 5511 5509 5506 5503 5501 5499
5510 5511 5513 5515 5518 5521 5524 5527 5530 5532 5534 5536 5536 5536 5536 5535 5535 5534 5533 5531 5530 5529 5528 5526 5524 5523 5523 5522 5521 5518 5515 5512 5509 5506 5504 5502 5500 5499 5497 5495 5493 5490 5487
5499 5501 5503 5506 5509 5512 5515 5518 5521 5523 5524 5526 5526 5526 5526 5525 5524 5523 5521 5519 5518 5517 5515 5514 5513 5511 5510 5510 5508 5506 5503 5500 5497 5494 5491 5490 5488 5486 5484 5482 5480 5478 5476
5489 5491 5493 5496 5500 5503 5506 5509 5511 5513 5514 5515 5516 5516 5516 5515 5513 5511 5510 5508 5506 5505 5504 5503 5502 5500 5498 5497 5496 5494 5491 5487 5484 5482 5480 5478 5475 5474 5471 5469 5467 5465 5463
5480 5482 5485 5487 5490 5493 5497 5499 5500 5502 5504 5505 5506 5507 5506 5505 5503 5501 5499 5498 5496 5495 5493 5492 5490 5488 5487 5486 5484 5482 5478 5474 5472 5470 5469 5467 5465 5464 5462 5459 5456 5453 5452
5472 5474 5476 5478 5481 5484 5487 5489 5490 5492 5494 5496 5497 5497 5497 5496 5494 5492 5490 5488 5486 5484 5482 5481 5479 5478 5476 5475 5473 5471 5467 5463 5461 5459 5458 5457 5455 5454 5452 5448 5446 5443 5441
5464 5466 5467 5469 5471 5474 5477 5479 5480 5482 5484 5486 5487 5487 5486 5485 5484 5482 5480 5478 5476 5473 5471 5470 5468 5467 5466 5465 5463 5461 5457 5454 5451 5449 5447 5446 5446 5445 5443 5440 5437 5435 5433
5455 5456 5457 5459 5461 5464 5466 5468 5470 5472 5473 5475 5476 5476 5475 5475 5474 5472 5469 5467 5465 5463 5461 5459 5458 5456 5456 5455 5454 5453 5450 5447 5443 5441 5439 5438 5437 5436 5434 5432 5430 5428 5425
5445 5446 5447 5449 5451 5453 5455 5457 5460 5461 5463 5464 5465 5465 5465 5464 5464 5462 5460 5457 5455 5454 5452 5450 5449 5447 5447 5446 5446 5445 5443 5440 5436 5434 5432 5430 5429 5427 5425 5424 5422 5419 5415
5436 5437 5438 5440 5442 5444 5446 5448 5449 5451 5453 5453 5454 5454 5455 5454 5453 5452 5451 5449 5448 5446 5444 5442 5441 5440 5438 5437 5436 5435 5434 5432 5429 5426 5424 5423 5421 5418 5416 5415 5413 5410 5407
5427 5428 5429 5432 5433 5435 5436 5438 5440 5441 5442 5443 5444 5444 5445 5444 5444 5443 5443 5442 5442 5441 5439 5437 5435 5433 5432 5432 5431 5427 5425 5423 5421 5418 5415 5413 5410 5409 5407 5405 5403 5401 5399
5418 5419 5421 5423 5424 5426 5427 5428 5430 5431 5432 5433 5434 5434 5435 5435 5435 5434 5434 5435 5434 5434 5433 5432 5430 5429 5428 5427 5425 5423 5421 5418 5416 5412 5408 5406 5404 5402 5401 5399 5397 5395 5393